[Iaude] MPEC J71: 2024 JN1 [a=1.74,e=0.60,i=12.5,H=24.1]

mpec at cfa.harvard.edu mpec at cfa.harvard.edu
Sat May 4 19:33:46 EDT 2024


M.P.E.C. 2024-J71                                   Issued 2024 May 4, 23:32 UT

     The Minor Planet Electronic Circulars contain information on unusual
         minor planets, routine data on comets and natural satellites,
         and occasional editorial announcements.  They are published
    on behalf of Division F of the International Astronomical Union by the
          Minor Planet Center, Smithsonian Astrophysical Observatory,
                          Cambridge, MA 02138, U.S.A.
			  
             Prepared using the Tamkin Foundation Computer Network

                              MPC at CFA.HARVARD.EDU
            URL https://www.minorplanetcenter.net/    ISSN 1523-6714

                                    2024 JN1                                    


Observations:
     K24J01N* C2024 05 02.53530915 12 31.445+28 39 47.92         20.37wXEJ071F52
     K24J01N  C2024 05 02.54573415 12 29.389+28 38 03.56         20.20wXEJ071F52
     K24J01N  C2024 05 02.55624315 12 27.348+28 36 18.62         20.49wXEJ071F52
     K24J01N KC2024 05 02.88697815 11 47.49 +27 43 30.2          20.2 GXEJ071I93
     K24J01N KC2024 05 02.89167915 11 46.71 +27 42 48.4          20.1 GXEJ071I93
     K24J01N KC2024 05 02.89637015 11 45.98 +27 42 06.2          20.2 GXEJ071I93
     K24J01N 1C2024 05 03.04779 15 11 19.20 +27 19 33.6          20.2 VXEJ071033
     K24J01N 1C2024 05 03.04857 15 11 19.08 +27 19 27.5          20.2 VXEJ071033
     K24J01N 1C2024 05 03.04935 15 11 18.94 +27 19 20.3          20.3 VXEJ071033
     K24J01N 1C2024 05 03.05013 15 11 18.82 +27 19 13.8          20.2 VXEJ071033
     K24J01N KB2024 05 03.26985 15 10 52.538+26 48 19.84         20.6 RZEJ071H36
     K24J01N KB2024 05 03.27552 15 10 51.554+26 47 32.57         20.0 RZEJ071H36
     K24J01N mC2024 05 03.41444815 10 30.558+26 28 37.42         20.97GVEJ071I52
     K24J01N mC2024 05 03.41476815 10 30.486+26 28 34.79         20.67GVEJ071I52
     K24J01N mC2024 05 03.41699415 10 30.144+26 28 16.75         20.40GVEJ071I52
     K24J01N mC2024 05 03.41921615 10 29.809+26 27 58.18         20.00GVEJ071I52
     K24J01N KC2024 05 04.21727315 09 07.58 +24 48 55.5          20.1 GXEJ071858
     K24J01N KC2024 05 04.22391015 09 06.72 +24 48 10.8          19.8 GXEJ071858
     K24J01N KC2024 05 04.23086715 09 05.78 +24 47 24.1          20.3 GXEJ071858
     K24J01N KC2024 05 04.25792915 09 00.44 +24 44 16.2          20.9 GVEJ071H21
     K24J01N KC2024 05 04.26646715 08 59.32 +24 43 18.2          20.6 GVEJ071H21
     K24J01N KC2024 05 04.27187315 08 58.60 +24 42 41.5          21.1 GVEJ071H21
     K24J01N !C2024 05 04.39407 15 08 45.18 +24 29 08.3          20.4 GVEJ071673
     K24J01N !C2024 05 04.39750 15 08 44.75 +24 28 45.5                VEJ071673
     K24J01N 1C2024 05 04.88661 15 08 03.83 +23 36 47.6          20.8 VXEJ071033
     K24J01N 1C2024 05 04.88775 15 08 03.70 +23 36 41.0          20.9 VXEJ071033
     K24J01N 1C2024 05 04.88889 15 08 03.58 +23 36 34.4          20.7 VXEJ071033
     K24J01N 1C2024 05 04.89002 15 08 03.46 +23 36 27.2          20.7 VXEJ071033

Observer details:
033 Karl Schwarzschild Observatory, Tautenburg.  Observers S. Melnikov, C.
    Hogner, F. Ludwig, M. Hartmann, B. Stecklum.  Measurer B. Stecklum.
    1.34-m f/3 Schmidt + CCD.
673 Table Mountain Observatory, Wrightwood.  Observer J. Pittichova.  1.0-m
    f/15 reflector + CCD.
858 Tebbutt Observatory, Edgewood.  Observer F. B. Zoltowski.  0.51-m f/8.1
    Schmidt-Cassegrain + CCD.
F52 Pan-STARRS 2, Haleakala.  Observers J. Herman, T. Lowe, P. Minguez, A.
    Schultz, I. Smith.  Measurers K. Chambers, T. de Boer, J. Fairlamb, H.
    Gao, M. Huber, C.-C. Lin, E. Magnier, Y. Ramanjooloo, R. Wainscoat, R.
    Weryk.  1.8-m Ritchey-Chretien + CCD.
H21 Astronomical Research Observatory, Westfield.  Observer R. Holmes.
    Measurers T. Linder, R. Holmes, L. Horn.  0.81-m f/4.0 astrograph + CCD.
H36 Sandlot Observatory, Scranton.  Observer G. Hug.  0.56-m f/4.8 reflector +
    CMO.
I52 Steward Observatory, Mt. Lemmon Station.  Observer V. F. Carvajal.
    Measurers T. Beuden, V. F. Carvajal, D. Fay, J. B. Fazekas, D. C. Fuls, A.
    R. Gibbs, A. D. Grauer, H. Groeller, J. K. Hogan, R. A. Kowalski, S. M.
    Larson, G. J. Leonard, D. Rankin, R. L. Seaman, F. C. Shelly, K. W.
    Wierzchos.  1.0-m prime focus + CCD.
I93 St Pardon de Conques.  Observer F. Losse.  0.40-m f/3.7 reflector + CCD.

Orbital elements:
2024 JN1                                                 Earth MOID = 0.0283 AU
Epoch 2024 Mar. 31.0 TT = JDT 2460400.5                 Veres                   
M   9.58370              (2000.0)            P               Q                  
n   0.43028053     Peri.  287.21569     -0.70284040     -0.70395076             
a   1.7376738      Node   208.30556     +0.70663840     -0.67440447             
e   0.6046206      Incl.   12.46122     +0.08171629     -0.22278225             
P   2.29           H   24.11          G   0.15           U   8                  
Residuals in seconds of arc
240502 F52  0.0   0.0     240503 H36  0.4+  0.2+    240504 H21  0.1+  0.1-
240502 F52  0.1+  0.1-    240503 H36  0.3-  0.2+    240504 H21  0.1+  0.0
240502 F52  0.2+  0.0     240503 I52  0.1+  0.1-    240504 673  0.1-  0.2-
240502 I93  0.4-  0.1+    240503 I52  0.1-  0.1-    240504 673  0.1+  0.1-
240502 I93  0.4-  0.2+    240503 I52  0.1-  0.2+    240504 033  0.2+  0.2+
240502 I93  0.3+  0.3-    240503 I52  0.1+  0.2-    240504 033  0.1+  0.4+
240503 033  0.1-  0.9-    240504 858  0.2+  0.2-    240504 033  0.1+  0.6+
240503 033  0.0   0.1-    240504 858  0.3+  0.1-    240504 033  0.2+  0.1+
240503 033  0.1-  0.4-    240504 858  0.0   0.1+
240503 033  0.0   0.0     240504 H21  0.1-  0.1-

Ephemeris:
2024 JN1                 a,e,i = 1.74, 0.60, 12                  q = 0.6870
Date    TT    R. A. (2000) Decl.     Delta      r    Elong.  Phase     V
2024 04 04    02 44 36.6 -00 14 01   0.2342  0.8021    28.5   143.5    27.8
...
2024 04 19    02 38 55.6 +14 51 13   0.07289 0.9334    12.9   166.1    32.1
...
2024 04 27    16 27 24.1 +66 25 50   0.03287 1.0106    96.3    81.9    19.6
...
2024 05 03    15 11 27.7 +27 27 26   0.08323 1.0697   136.3    40.7    20.5
2024 05 04    15 09 27.2 +25 14 45   0.09305 1.0796   138.4    38.3    20.7
2024 05 05    15 07 51.9 +23 26 17   0.1030  1.0895   140.1    36.5    20.8
...
2024 05 11    15 02 39.6 +16 57 52   0.1647  1.1490   145.1    30.2    21.8
...
2024 05 19    15 00 18.7 +12 43 01   0.2512  1.2276   145.8    27.6    22.8
...
2024 06 03    15 01 28.8 +07 59 36   0.4271  1.3714   140.6    28.0    24.2

M. P. C. Staff               (C) Copyright 2024 MPC           M.P.E.C. 2024-J71





More information about the Iaude mailing list